Arctic Village, AK

9:08 AM AKDT on October 19, 2017 (GMT -0800)
Arctic Village

Weather History for PARC - November, 2012

Change the Weather History Date:

Wednesday, November 7, 2012

  Actual Average Record
Temperature  
Mean Temperature -24 °F -  
Max Temperature -18 °F 11 °F 29 °F (1970)
Min Temperature -29 °F -10 °F -41 °F (2004)
Degree Days  
Heating Degree Days 88    
Moisture  
Dew Point -26 °F    
Average Humidity 72    
Maximum Humidity 91    
Minimum Humidity 58    
Precipitation  
Precipitation 0.00 in - - ()
Sea Level Pressure  
Sea Level Pressure 30.24 in    
Wind  
Wind Speed 0 mph (NE)    
Max Wind Speed 4 mph    
Max Gust Speed -    
Visibility 9 miles    
Events      
Averages and records for this station are not official NWS values.
T = Trace of Precipitation, MM = Missing Value Source: NWS Daily Summary

Daily Weather History Graph

Daily Weather History Graph

Search for Another Location

Airport or City:

Trip Planner

Search our weather history database for the weather conditions in past years. The results will help you decide how hot, cold, wet, or windy it might be!

Date:

Astronomy

Nov. 07, 2012 Rise Set
Actual Time 9:23 AM AKST 3:27 PM AKST
Civil Twilight 8:12 AM AKST 4:38 PM AKST
Nautical Twilight 7:02 AM AKST 5:48 PM AKST
Astronomical Twilight 5:56 AM AKST 6:53 PM AKST
Moon No Moon Rise 2:38 PM AKST (11/7)
Length of Visible Light 8h 26m
Length of Day
6h 03m
Last Quarter, 41% of the Moon is Illuminated
Nov 7
Last Quarter
Nov 13
New
Nov 20
First Quarter
Nov 28
Full
Dec 6
Last Quarter

Hourly Weather History & Observations

Time (AKST) Temp. Windchill Dew Point Humidity Pressure Visibility Wind Dir Wind Speed Gust Speed Precip Events Conditions
12:16 AM -23.8 °F - - N/A% 30.21 in 9.0 mi Calm Calm - N/A   Clear
12:36 AM -23.8 °F - - N/A% 30.21 in 10.0 mi Calm Calm - N/A   Clear
12:56 AM -23.8 °F - - N/A% 30.22 in 10.0 mi Calm Calm - N/A   Clear
1:16 AM -27.4 °F - - N/A% 30.22 in 10.0 mi Calm Calm - N/A   Clear
1:36 AM -25.6 °F - - N/A% 30.22 in 10.0 mi Calm Calm - N/A   Clear
1:56 AM -25.6 °F - - N/A% 30.22 in 10.0 mi Calm Calm - N/A   Clear
2:16 AM -25.6 °F - - N/A% 30.22 in 9.0 mi Calm Calm - N/A   Clear
2:36 AM -25.6 °F - - N/A% 30.22 in 10.0 mi Calm Calm - N/A   Clear
2:56 AM -25.6 °F - - N/A% 30.21 in 8.0 mi Calm Calm - N/A   Clear
3:36 AM -25.6 °F - - N/A% 30.22 in 10.0 mi Calm Calm - N/A   Clear
3:56 AM -27.4 °F - - N/A% 30.21 in 10.0 mi Calm Calm - N/A   Clear
4:16 AM -25.6 °F - - N/A% 30.21 in 10.0 mi Calm Calm - N/A   Clear
4:36 AM -27.4 °F - - N/A% 30.21 in 10.0 mi Calm Calm - N/A   Clear
4:56 AM -27.4 °F - - N/A% 30.21 in 10.0 mi Calm Calm - N/A   Clear
5:16 AM -27.4 °F - - N/A% 30.21 in 10.0 mi Calm Calm - N/A   Clear
5:36 AM -27.4 °F - - N/A% 30.21 in 10.0 mi Calm Calm - N/A   Clear
5:56 AM -27.4 °F - - N/A% 30.21 in 10.0 mi Calm Calm - N/A   Clear
6:16 AM -27.4 °F - - N/A% 30.21 in 10.0 mi Calm Calm - N/A   Clear
6:36 AM -27.4 °F - - N/A% 30.21 in 10.0 mi Calm Calm - N/A   Clear
6:56 AM -27.4 °F - - N/A% 30.21 in 10.0 mi Calm Calm - N/A   Clear
7:16 AM -25.6 °F - - N/A% 30.21 in 8.0 mi Calm Calm - N/A   Clear
7:36 AM -27.4 °F - - N/A% 30.21 in 10.0 mi Calm Calm - N/A   Clear
7:56 AM -27.4 °F - - N/A% 30.21 in 10.0 mi Calm Calm - N/A   Clear
8:16 AM -27.4 °F - - N/A% 30.21 in 10.0 mi Calm Calm - N/A   Clear
8:36 AM -29.2 °F - - N/A% 30.22 in 10.0 mi Calm Calm - N/A   Clear
8:56 AM -27.4 °F - - N/A% 30.22 in 10.0 mi Calm Calm - N/A   Clear
9:16 AM -27.4 °F - - N/A% 30.22 in 9.0 mi Calm Calm - N/A   Clear
9:36 AM -27.4 °F - - N/A% 30.22 in 10.0 mi Calm Calm - N/A   Clear
9:56 AM -29.2 °F - - N/A% 30.22 in 8.0 mi Calm Calm - N/A   Clear
10:16 AM -27.4 °F - - N/A% 30.22 in 6.0 mi Calm Calm - N/A   Clear
10:36 AM -27.4 °F - - N/A% 30.22 in 5.0 mi Calm Calm - N/A   Clear
10:56 AM -23.8 °F - - N/A% 30.23 in 6.0 mi Calm Calm - N/A   Clear
11:16 AM -25.6 °F - - N/A% 30.24 in 5.0 mi Calm Calm - N/A   Clear
11:36 AM -23.8 °F - - N/A% 30.24 in 6.0 mi Calm Calm - N/A   Clear
11:56 AM -23.8 °F - - N/A% 30.24 in 7.0 mi Calm Calm - N/A   Clear
12:16 PM -22.0 °F - - N/A% 30.24 in 9.0 mi Calm Calm - N/A   Clear
12:36 PM -22.0 °F - - N/A% 30.24 in 10.0 mi Calm Calm - N/A   Clear
12:56 PM -20.2 °F - - N/A% 30.24 in 9.0 mi Calm Calm - N/A   Clear
1:16 PM -20.2 °F - - N/A% 30.24 in 10.0 mi Calm Calm - N/A   Clear
1:36 PM -18.4 °F - - N/A% 30.24 in 10.0 mi Calm Calm - N/A   Clear
1:56 PM -18.4 °F - - N/A% 30.24 in 10.0 mi Calm Calm - N/A   Clear
2:16 PM -18.4 °F - - N/A% 30.24 in 10.0 mi Calm Calm - N/A   Clear
2:36 PM -18.4 °F - - N/A% 30.24 in 10.0 mi Calm Calm - N/A   Clear
2:56 PM -18.4 °F - - N/A% 30.24 in 10.0 mi Calm Calm - N/A   Clear
3:16 PM -18.4 °F - - N/A% 30.24 in 10.0 mi Calm Calm - N/A   Clear
3:36 PM -18.4 °F - - N/A% 30.24 in 10.0 mi Calm Calm - N/A   Partly Cloudy
3:56 PM -18.4 °F - - N/A% 30.24 in 10.0 mi Calm Calm - N/A   Partly Cloudy
4:16 PM -18.4 °F - - N/A% 30.25 in 10.0 mi Calm Calm - N/A   Partly Cloudy
4:36 PM -18.4 °F - - N/A% 30.25 in 10.0 mi Calm Calm - N/A   Clear
4:56 PM -18.4 °F - -27.4 °F 63% 30.25 in 10.0 mi Calm Calm - N/A   Scattered Clouds
5:16 PM -18.4 °F - - N/A% 30.26 in 10.0 mi Calm Calm - N/A   Partly Cloudy
5:36 PM -18.4 °F - -29.2 °F 58% 30.26 in 10.0 mi Calm Calm - N/A   Clear
5:56 PM -20.2 °F - - N/A% 30.26 in 10.0 mi Calm Calm - N/A   Partly Cloudy
6:16 PM -20.2 °F - - N/A% 30.26 in 10.0 mi Calm Calm - N/A   Clear
6:36 PM -20.2 °F - -25.6 °F 76% 30.27 in 10.0 mi Calm Calm - N/A   Clear
6:56 PM -20.2 °F - - N/A% 30.27 in 10.0 mi Calm Calm - N/A   Clear
7:16 PM -20.2 °F - -22.0 °F 91% 30.28 in 10.0 mi Calm Calm - N/A   Clear
7:36 PM -20.2 °F - - N/A% 30.28 in 10.0 mi Calm Calm - N/A   Mostly Cloudy
7:56 PM -18.4 °F - - N/A% 30.28 in 8.0 mi Calm Calm - N/A   Overcast
8:16 PM -18.4 °F - - N/A% 30.28 in 10.0 mi Calm Calm - N/A   Overcast
8:36 PM -18.4 °F - - N/A% 30.28 in 10.0 mi Calm Calm - N/A   Mostly Cloudy
8:56 PM -18.4 °F - - N/A% 30.29 in 10.0 mi Calm Calm - N/A   Mostly Cloudy
9:16 PM -18.4 °F - - N/A% 30.29 in 10.0 mi Calm Calm - N/A   Partly Cloudy
9:36 PM -18.4 °F - - N/A% 30.30 in 10.0 mi Calm Calm - N/A   Scattered Clouds
9:56 PM -18.4 °F - - N/A% 30.30 in 10.0 mi Calm Calm - N/A   Partly Cloudy
10:16 PM -18.4 °F - - N/A% 30.31 in 9.0 mi Calm Calm - N/A   Clear
10:36 PM -18.4 °F - - N/A% 30.31 in 10.0 mi Calm Calm - N/A   Clear
10:56 PM -20.2 °F - - N/A% 30.31 in 10.0 mi Calm Calm - N/A   Clear
11:16 PM -20.2 °F - - N/A% 30.32 in 9.0 mi Calm Calm - N/A   Clear
11:36 PM -20.2 °F -30.9 °F - N/A% 30.32 in 10.0 mi NNE 3.5 mph - N/A   Clear
11:56 PM -20.2 °F -30.9 °F - N/A% 30.32 in 10.0 mi NE 3.5 mph - N/A   Clear